Year,Month,Day,Hour,Minute,Value (Times are PST for temperature in C)
2014,05,18,00,00,11.10
2014,05,18,00,01,11.10
2014,05,18,00,02,11.10
2014,05,18,00,03,11.10
2014,05,18,00,04,10.90
2014,05,18,00,05,10.90
2014,05,18,00,06,10.90
2014,05,18,00,07,10.80
2014,05,18,00,08,10.70
2014,05,18,00,09,10.60
2014,05,18,00,10,10.60
2014,05,18,00,11,10.60
2014,05,18,00,12,10.40
2014,05,18,00,13,10.40
2014,05,18,00,14,10.40
2014,05,18,00,15,10.30
2014,05,18,00,16,10.30
2014,05,18,00,17,10.30
2014,05,18,00,18,10.40
2014,05,18,00,19,10.40
2014,05,18,00,20,10.40
2014,05,18,00,21,10.40
2014,05,18,00,22,10.40
2014,05,18,00,23,10.40
2014,05,18,00,24,10.40
2014,05,18,00,25,10.40
2014,05,18,00,26,10.40
2014,05,18,00,27,10.40
2014,05,18,00,28,10.40
2014,05,18,00,29,10.40
2014,05,18,00,30,10.30
2014,05,18,00,31,10.20
2014,05,18,00,32,10.20
2014,05,18,00,33,10.20
2014,05,18,00,34,10.10
2014,05,18,00,35,10.10
2014,05,18,00,36,10.10
2014,05,18,00,37,10.10
2014,05,18,00,38,10.10
2014,05,18,00,39,10.10
2014,05,18,00,40,10.10
2014,05,18,00,41,10.10
2014,05,18,00,42,10.10
2014,05,18,00,43,9.90
2014,05,18,00,44,9.90
2014,05,18,00,45,9.90
2014,05,18,00,46,9.90
2014,05,18,00,47,9.90
2014,05,18,00,48,9.90
2014,05,18,00,49,9.90
2014,05,18,00,50,9.90
2014,05,18,00,51,9.80
2014,05,18,00,52,9.80
2014,05,18,00,53,9.80
2014,05,18,00,54,9.80
2014,05,18,00,55,9.80
2014,05,18,00,56,9.70
2014,05,18,00,57,9.70
2014,05,18,00,58,9.70
2014,05,18,00,59,9.70
2014,05,18,01,00,9.70
2014,05,18,01,01,9.70
2014,05,18,01,02,9.70
2014,05,18,01,03,9.70
2014,05,18,01,04,9.70
2014,05,18,01,05,9.60
2014,05,18,01,06,9.60
2014,05,18,01,07,9.60
2014,05,18,01,08,9.50
2014,05,18,01,09,9.50
2014,05,18,01,10,9.50
2014,05,18,01,11,9.40
2014,05,18,01,12,9.40
2014,05,18,01,13,9.40
2014,05,18,01,14,9.40
2014,05,18,01,15,9.30
2014,05,18,01,16,9.30
2014,05,18,01,17,9.30
2014,05,18,01,18,9.30
2014,05,18,01,19,9.30
2014,05,18,01,20,9.20
2014,05,18,01,21,9.20
2014,05,18,01,22,9.20
2014,05,18,01,23,9.20
2014,05,18,01,24,9.20
2014,05,18,01,25,9.20
2014,05,18,01,26,9.20
2014,05,18,01,27,9.20
2014,05,18,01,28,9.20
2014,05,18,01,29,9.20
2014,05,18,01,30,9.20
2014,05,18,01,31,9.20
2014,05,18,01,32,9.10
2014,05,18,01,33,9.10
2014,05,18,01,34,9.10
2014,05,18,01,35,9.10
2014,05,18,01,36,9.00
2014,05,18,01,37,9.00
2014,05,18,01,38,9.00
2014,05,18,01,39,9.00
2014,05,18,01,40,9.00
2014,05,18,01,41,9.00
2014,05,18,01,42,9.00
2014,05,18,01,43,8.90
2014,05,18,01,44,8.90
2014,05,18,01,45,8.90
2014,05,18,01,46,8.90
2014,05,18,01,47,8.90
2014,05,18,01,48,8.90
2014,05,18,01,49,8.90
2014,05,18,01,50,8.90
2014,05,18,01,51,8.90
2014,05,18,01,52,8.90
2014,05,18,01,53,8.90
2014,05,18,01,54,8.90
2014,05,18,01,55,8.90
2014,05,18,01,56,8.90
2014,05,18,01,57,8.90
2014,05,18,01,58,8.80
2014,05,18,01,59,8.80
2014,05,18,02,00,8.80
2014,05,18,02,01,8.80
2014,05,18,02,02,8.80
2014,05,18,02,03,8.70
2014,05,18,02,04,8.70
2014,05,18,02,05,8.70
2014,05,18,02,06,8.70
2014,05,18,02,07,8.70
2014,05,18,02,08,8.70
2014,05,18,02,09,8.70
2014,05,18,02,10,8.70
2014,05,18,02,11,8.70
2014,05,18,02,12,8.70
2014,05,18,02,13,8.70
2014,05,18,02,14,8.60
2014,05,18,02,15,8.60
2014,05,18,02,16,8.60
2014,05,18,02,17,8.60
2014,05,18,02,18,8.60
2014,05,18,02,19,8.60
2014,05,18,02,20,8.60
2014,05,18,02,21,8.60
2014,05,18,02,22,8.60
2014,05,18,02,23,8.60
2014,05,18,02,24,8.60
2014,05,18,02,25,8.60
2014,05,18,02,26,8.60
2014,05,18,02,27,8.50
2014,05,18,02,28,8.50
2014,05,18,02,29,8.50
2014,05,18,02,30,8.50
2014,05,18,02,31,8.50
2014,05,18,02,32,8.50
2014,05,18,02,33,8.50
2014,05,18,02,34,8.50
2014,05,18,02,35,8.50
2014,05,18,02,36,8.40
2014,05,18,02,37,8.40
2014,05,18,02,38,8.40
2014,05,18,02,39,8.40
2014,05,18,02,40,8.30
2014,05,18,02,41,8.30
2014,05,18,02,42,8.30
2014,05,18,02,43,8.30
2014,05,18,02,44,8.30
2014,05,18,02,45,8.30
2014,05,18,02,46,8.30
2014,05,18,02,47,8.30
2014,05,18,02,48,8.30
2014,05,18,02,49,8.30
2014,05,18,02,50,8.20
2014,05,18,02,51,8.20
2014,05,18,02,52,8.20
2014,05,18,02,53,8.20
2014,05,18,02,54,8.20
2014,05,18,02,55,8.20
2014,05,18,02,56,8.20
2014,05,18,02,57,8.20
2014,05,18,02,58,8.30
2014,05,18,02,59,8.30
2014,05,18,03,00,8.20
2014,05,18,03,01,8.20
2014,05,18,03,02,8.20
2014,05,18,03,03,8.20
2014,05,18,03,04,8.20
2014,05,18,03,05,8.20
2014,05,18,03,06,8.20
2014,05,18,03,07,8.20
2014,05,18,03,08,8.20
2014,05,18,03,09,8.20
2014,05,18,03,10,8.20
2014,05,18,03,11,8.20
2014,05,18,03,12,8.20
2014,05,18,03,13,8.20
2014,05,18,03,14,8.20
2014,05,18,03,15,8.20
2014,05,18,03,16,8.20
2014,05,18,03,17,8.20
2014,05,18,03,18,8.20
2014,05,18,03,19,8.20
2014,05,18,03,20,8.20
2014,05,18,03,21,8.20
2014,05,18,03,22,8.20
2014,05,18,03,23,8.20
2014,05,18,03,24,8.20
2014,05,18,03,25,8.10
2014,05,18,03,26,8.10
2014,05,18,03,27,8.10
2014,05,18,03,28,8.10
2014,05,18,03,29,8.10
2014,05,18,03,30,8.10
2014,05,18,03,31,8.10
2014,05,18,03,32,8.10
2014,05,18,03,33,8.10
2014,05,18,03,34,8.10
2014,05,18,03,35,8.10
2014,05,18,03,36,8.10
2014,05,18,03,37,8.00
2014,05,18,03,38,8.10
2014,05,18,03,39,8.10
2014,05,18,03,40,8.10
2014,05,18,03,41,8.10
2014,05,18,03,42,8.10
2014,05,18,03,43,8.10
2014,05,18,03,44,8.10
2014,05,18,03,45,8.10
2014,05,18,03,46,8.10
2014,05,18,03,47,8.10
2014,05,18,03,48,8.10
2014,05,18,03,49,8.10
2014,05,18,03,50,8.10
2014,05,18,03,51,8.10
2014,05,18,03,52,8.00
2014,05,18,03,53,8.00
2014,05,18,03,54,8.10
2014,05,18,03,55,8.10
2014,05,18,03,56,8.10
2014,05,18,03,57,8.10
2014,05,18,03,58,8.10
2014,05,18,03,59,8.00
2014,05,18,04,00,8.00
2014,05,18,04,01,8.00
2014,05,18,04,02,8.00
2014,05,18,04,03,8.00
2014,05,18,04,04,8.00
2014,05,18,04,05,8.00
2014,05,18,04,06,8.00
2014,05,18,04,07,8.00
2014,05,18,04,08,7.90
2014,05,18,04,09,7.90
2014,05,18,04,10,7.90
2014,05,18,04,11,7.90
2014,05,18,04,12,7.90
2014,05,18,04,13,7.90
2014,05,18,04,14,7.90
2014,05,18,04,15,7.90
2014,05,18,04,16,7.90
2014,05,18,04,17,7.90
2014,05,18,04,18,7.90
2014,05,18,04,19,7.80
2014,05,18,04,20,7.80
2014,05,18,04,21,7.80
2014,05,18,04,22,7.80
2014,05,18,04,23,7.80
2014,05,18,04,24,7.80
2014,05,18,04,25,7.80
2014,05,18,04,26,7.80
2014,05,18,04,27,7.80
2014,05,18,04,28,7.80
2014,05,18,04,29,7.80
2014,05,18,04,30,7.80
2014,05,18,04,31,7.70
2014,05,18,04,32,7.70
2014,05,18,04,33,7.70
2014,05,18,04,34,7.70
2014,05,18,04,35,7.70
2014,05,18,04,36,7.60
2014,05,18,04,37,7.60
2014,05,18,04,38,7.70
2014,05,18,04,39,7.70
2014,05,18,04,40,7.60
2014,05,18,04,41,7.60
2014,05,18,04,42,7.60
2014,05,18,04,43,7.60
2014,05,18,04,44,7.60
2014,05,18,04,45,7.60
2014,05,18,04,46,7.60
2014,05,18,04,47,7.60
2014,05,18,04,48,7.60
2014,05,18,04,49,7.60
2014,05,18,04,50,7.60
2014,05,18,04,51,7.60
2014,05,18,04,52,7.60
2014,05,18,04,53,7.60
2014,05,18,04,54,7.60
2014,05,18,04,55,7.60
2014,05,18,04,56,7.60
2014,05,18,04,57,7.60
2014,05,18,04,58,7.60
2014,05,18,04,59,7.60
2014,05,18,05,00,7.60
2014,05,18,05,01,7.60
2014,05,18,05,02,7.60
2014,05,18,05,03,7.60
2014,05,18,05,04,7.60
2014,05,18,05,05,7.60
2014,05,18,05,06,7.60
2014,05,18,05,07,7.60
2014,05,18,05,08,7.60
2014,05,18,05,09,7.60
2014,05,18,05,10,7.60
2014,05,18,05,11,7.60
2014,05,18,05,12,7.60
2014,05,18,05,13,7.60
2014,05,18,05,14,7.60
2014,05,18,05,15,7.60
2014,05,18,05,16,7.50
2014,05,18,05,17,7.50
2014,05,18,05,18,7.50
2014,05,18,05,19,7.50
2014,05,18,05,20,7.50
2014,05,18,05,21,7.50
2014,05,18,05,22,7.40
2014,05,18,05,23,7.40
2014,05,18,05,24,7.40
2014,05,18,05,25,7.40
2014,05,18,05,26,7.40
2014,05,18,05,27,7.40
2014,05,18,05,28,7.40
2014,05,18,05,29,7.40
2014,05,18,05,30,7.30
2014,05,18,05,31,7.30
2014,05,18,05,32,7.30
2014,05,18,05,33,7.30
2014,05,18,05,34,7.30
2014,05,18,05,35,7.30
2014,05,18,05,36,7.30
2014,05,18,05,37,7.30
2014,05,18,05,38,7.30
2014,05,18,05,39,7.30
2014,05,18,05,40,7.30
2014,05,18,05,41,7.30
2014,05,18,05,42,7.30
2014,05,18,05,43,7.30
2014,05,18,05,44,7.30
2014,05,18,05,45,7.30
2014,05,18,05,46,7.30
2014,05,18,05,47,7.30
2014,05,18,05,48,7.30
2014,05,18,05,49,7.30
2014,05,18,05,50,7.30
2014,05,18,05,51,7.30
2014,05,18,05,52,7.30
2014,05,18,05,53,7.40
2014,05,18,05,54,7.40
2014,05,18,05,55,7.40
2014,05,18,05,56,7.40
2014,05,18,05,57,7.40
2014,05,18,05,58,7.40
2014,05,18,05,59,7.50
2014,05,18,06,00,7.50
2014,05,18,06,01,7.50
2014,05,18,06,02,7.50
2014,05,18,06,03,7.60
2014,05,18,06,04,7.60
2014,05,18,06,05,7.60
2014,05,18,06,06,7.60
2014,05,18,06,07,7.60
2014,05,18,06,08,7.60
2014,05,18,06,09,7.60
2014,05,18,06,10,7.60
2014,05,18,06,11,7.60
2014,05,18,06,12,7.60
2014,05,18,06,13,7.60
2014,05,18,06,14,7.60
2014,05,18,06,15,7.60
2014,05,18,06,16,7.60
2014,05,18,06,17,7.60
2014,05,18,06,18,7.60
2014,05,18,06,19,7.60
2014,05,18,06,20,7.60
2014,05,18,06,21,7.70
2014,05,18,06,22,7.70
2014,05,18,06,23,7.70
2014,05,18,06,24,7.70
2014,05,18,06,25,7.70
2014,05,18,06,26,7.70
2014,05,18,06,27,7.70
2014,05,18,06,28,7.80
2014,05,18,06,29,7.80
2014,05,18,06,30,7.80
2014,05,18,06,31,7.80
2014,05,18,06,32,7.80
2014,05,18,06,33,7.80
2014,05,18,06,34,7.90
2014,05,18,06,35,7.90
2014,05,18,06,36,8.00
2014,05,18,06,37,8.00
2014,05,18,06,38,8.10
2014,05,18,06,39,8.10
2014,05,18,06,40,8.10
2014,05,18,06,41,8.20
2014,05,18,06,42,8.20
2014,05,18,06,43,8.20
2014,05,18,06,44,8.20
2014,05,18,06,45,8.20
2014,05,18,06,46,8.20
2014,05,18,06,47,8.20
2014,05,18,06,48,8.30
2014,05,18,06,49,8.30
2014,05,18,06,50,8.40
2014,05,18,06,51,8.40
2014,05,18,06,52,8.50
2014,05,18,06,53,8.50
2014,05,18,06,54,8.50
2014,05,18,06,55,8.60
2014,05,18,06,56,8.60
2014,05,18,06,57,8.60
2014,05,18,06,58,8.70
2014,05,18,06,59,8.70
2014,05,18,07,00,8.70
2014,05,18,07,01,8.70
2014,05,18,07,02,8.70
2014,05,18,07,03,8.70
2014,05,18,07,04,8.80
2014,05,18,07,05,8.80
2014,05,18,07,06,8.90
2014,05,18,07,07,8.90
2014,05,18,07,08,9.00
2014,05,18,07,09,9.00
2014,05,18,07,10,9.10
2014,05,18,07,11,9.10
2014,05,18,07,12,9.20
2014,05,18,07,13,9.20
2014,05,18,07,14,9.20
2014,05,18,07,15,9.20
2014,05,18,07,16,9.20
2014,05,18,07,17,9.20
2014,05,18,07,18,9.30
2014,05,18,07,19,9.30
2014,05,18,07,20,9.30
2014,05,18,07,21,9.40
2014,05,18,07,22,9.40
2014,05,18,07,23,9.50
2014,05,18,07,24,9.60
2014,05,18,07,25,9.60
2014,05,18,07,26,9.60
2014,05,18,07,27,9.60
2014,05,18,07,28,9.70
2014,05,18,07,29,9.70
2014,05,18,07,30,9.70
2014,05,18,07,31,9.70
2014,05,18,07,32,9.70
2014,05,18,07,33,9.70
2014,05,18,07,34,9.70
2014,05,18,07,35,9.70
2014,05,18,07,36,9.70
2014,05,18,07,37,9.70
2014,05,18,07,38,9.70
2014,05,18,07,39,9.70
2014,05,18,07,40,9.70
2014,05,18,07,41,9.70
2014,05,18,07,42,9.70
2014,05,18,07,43,9.70
2014,05,18,07,44,9.70
2014,05,18,07,45,9.80
2014,05,18,07,46,9.80
2014,05,18,07,47,9.80
2014,05,18,07,48,9.80
2014,05,18,07,49,9.80
2014,05,18,07,50,9.90
2014,05,18,07,51,9.90
2014,05,18,07,52,9.90
2014,05,18,07,53,9.90
2014,05,18,07,54,10.10
2014,05,18,07,55,10.10
2014,05,18,07,56,10.10
2014,05,18,07,57,10.20
2014,05,18,07,58,10.20
2014,05,18,07,59,10.30
2014,05,18,08,00,10.30
2014,05,18,08,01,10.30
2014,05,18,08,02,10.40
2014,05,18,08,03,10.40
2014,05,18,08,04,10.40
2014,05,18,08,05,10.40
2014,05,18,08,06,10.60
2014,05,18,08,07,10.60
2014,05,18,08,08,10.60
2014,05,18,08,09,10.70
2014,05,18,08,10,10.80
2014,05,18,08,11,10.90
2014,05,18,08,12,10.90
2014,05,18,08,13,10.90
2014,05,18,08,14,10.90
2014,05,18,08,15,10.90
2014,05,18,08,16,10.90
2014,05,18,08,17,10.90
2014,05,18,08,18,10.90
2014,05,18,08,19,10.90
2014,05,18,08,20,10.90
2014,05,18,08,21,11.10
2014,05,18,08,22,11.10
2014,05,18,08,23,11.10
2014,05,18,08,24,11.10
2014,05,18,08,25,11.10
2014,05,18,08,26,11.20
2014,05,18,08,27,11.20
2014,05,18,08,28,11.30
2014,05,18,08,29,11.30
2014,05,18,08,30,11.40
2014,05,18,08,31,11.40
2014,05,18,08,32,11.40
2014,05,18,08,33,11.60
2014,05,18,08,34,11.60
2014,05,18,08,35,11.70
2014,05,18,08,36,11.70
2014,05,18,08,37,11.80
2014,05,18,08,38,11.80
2014,05,18,08,39,11.80
2014,05,18,08,40,11.90
2014,05,18,08,41,11.90
2014,05,18,08,42,11.90
2014,05,18,08,43,12.00
2014,05,18,08,44,12.00
2014,05,18,08,45,12.00
2014,05,18,08,46,12.10
2014,05,18,08,47,12.10
2014,05,18,08,48,12.20
2014,05,18,08,49,12.20
2014,05,18,08,50,12.30
2014,05,18,08,51,12.30
2014,05,18,08,52,12.30
2014,05,18,08,53,12.30
2014,05,18,08,54,12.30
2014,05,18,08,55,12.30
2014,05,18,08,56,12.30
2014,05,18,08,57,12.30
2014,05,18,08,58,12.30
2014,05,18,08,59,12.30
2014,05,18,09,00,12.30
2014,05,18,09,01,12.30
2014,05,18,09,02,12.40
2014,05,18,09,03,12.40
2014,05,18,09,04,12.50
2014,05,18,09,05,12.50
2014,05,18,09,06,12.50
2014,05,18,09,07,12.50
2014,05,18,09,08,12.50
2014,05,18,09,09,12.50
2014,05,18,09,10,12.50
2014,05,18,09,11,12.50
2014,05,18,09,12,12.50
2014,05,18,09,13,12.50
2014,05,18,09,14,12.40
2014,05,18,09,15,12.40
2014,05,18,09,16,12.40
2014,05,18,09,17,12.40
2014,05,18,09,18,12.30
2014,05,18,09,19,12.40
2014,05,18,09,20,12.40
2014,05,18,09,21,12.40
2014,05,18,09,22,12.40
2014,05,18,09,23,12.40
2014,05,18,09,24,12.40
2014,05,18,09,25,12.40
2014,05,18,09,26,12.40
2014,05,18,09,27,12.40
2014,05,18,09,28,12.40
2014,05,18,09,29,12.40
2014,05,18,09,30,12.40
2014,05,18,09,31,12.40
2014,05,18,09,32,12.50
2014,05,18,09,33,12.60
2014,05,18,09,34,12.60
2014,05,18,09,35,12.70
2014,05,18,09,36,12.80
2014,05,18,09,37,12.80
2014,05,18,09,38,12.80
2014,05,18,09,39,12.90
2014,05,18,09,40,12.90
2014,05,18,09,41,12.90
2014,05,18,09,42,12.90
2014,05,18,09,43,13.00
2014,05,18,09,44,13.00
2014,05,18,09,45,13.00
2014,05,18,09,46,13.10
2014,05,18,09,47,13.20
2014,05,18,09,48,13.30
2014,05,18,09,49,13.30
2014,05,18,09,50,13.30
2014,05,18,09,51,13.40
2014,05,18,09,52,13.50
2014,05,18,09,53,13.60
2014,05,18,09,54,13.70
2014,05,18,09,55,13.70
2014,05,18,09,56,13.70
2014,05,18,09,57,13.70
2014,05,18,09,58,13.80
2014,05,18,09,59,13.80
2014,05,18,10,00,13.90
2014,05,18,10,01,14.00
2014,05,18,10,02,14.10
2014,05,18,10,03,14.20
2014,05,18,10,04,14.20
2014,05,18,10,05,14.30
2014,05,18,10,06,14.40
2014,05,18,10,07,14.50
2014,05,18,10,08,14.50
2014,05,18,10,09,14.60
2014,05,18,10,10,14.60
2014,05,18,10,11,14.70
2014,05,18,10,12,14.80
2014,05,18,10,13,14.80
2014,05,18,10,14,14.80
2014,05,18,10,15,14.80
2014,05,18,10,16,14.80
2014,05,18,10,17,14.80
2014,05,18,10,18,14.80
2014,05,18,10,19,14.80
2014,05,18,10,20,14.80
2014,05,18,10,21,14.90
2014,05,18,10,22,14.90
2014,05,18,10,23,14.90
2014,05,18,10,24,15.00
2014,05,18,10,25,15.00
2014,05,18,10,26,15.10
2014,05,18,10,27,15.10
2014,05,18,10,28,15.10
2014,05,18,10,29,15.10
2014,05,18,10,30,15.20
2014,05,18,10,31,15.30
2014,05,18,10,32,15.30
2014,05,18,10,33,15.40
2014,05,18,10,34,15.40
2014,05,18,10,35,15.40
2014,05,18,10,36,15.40
2014,05,18,10,37,15.40
2014,05,18,10,38,15.40
2014,05,18,10,39,15.50
2014,05,18,10,40,15.50
2014,05,18,10,41,15.60
2014,05,18,10,42,15.70
2014,05,18,10,43,15.80
2014,05,18,10,44,15.80
2014,05,18,10,45,15.80
2014,05,18,10,46,15.80
2014,05,18,10,47,15.80
2014,05,18,10,48,15.80
2014,05,18,10,49,15.80
2014,05,18,10,50,15.80
2014,05,18,10,51,15.80
2014,05,18,10,52,15.80
2014,05,18,10,53,15.80
2014,05,18,10,54,15.80
2014,05,18,10,55,15.90
2014,05,18,10,56,16.10
2014,05,18,10,57,16.30
2014,05,18,10,58,16.40
2014,05,18,10,59,16.40
2014,05,18,11,00,16.40
2014,05,18,11,01,16.40
2014,05,18,11,02,16.60
2014,05,18,11,03,16.70
2014,05,18,11,04,16.70
2014,05,18,11,05,16.70
2014,05,18,11,06,16.70
2014,05,18,11,07,16.60
2014,05,18,11,08,16.60
2014,05,18,11,09,16.60
2014,05,18,11,10,16.60
2014,05,18,11,11,16.70
2014,05,18,11,12,16.70
2014,05,18,11,13,16.70
2014,05,18,11,14,16.70
2014,05,18,11,15,16.80
2014,05,18,11,16,16.90
2014,05,18,11,17,17.00
2014,05,18,11,18,17.00
2014,05,18,11,19,17.10
2014,05,18,11,20,17.20
2014,05,18,11,21,17.20
2014,05,18,11,22,17.30
2014,05,18,11,23,17.30
2014,05,18,11,24,17.30
2014,05,18,11,25,17.40
2014,05,18,11,26,17.40
2014,05,18,11,27,17.40
2014,05,18,11,28,17.40
2014,05,18,11,29,17.50
2014,05,18,11,30,17.50
2014,05,18,11,31,17.70
2014,05,18,11,32,17.70
2014,05,18,11,33,17.70
2014,05,18,11,34,17.70
2014,05,18,11,35,17.70
2014,05,18,11,36,17.70
2014,05,18,11,37,17.70
2014,05,18,11,38,17.70
2014,05,18,11,39,17.70
2014,05,18,11,40,17.80
2014,05,18,11,41,17.80
2014,05,18,11,42,17.80
2014,05,18,11,43,17.90
2014,05,18,11,44,17.90
2014,05,18,11,45,18.10
2014,05,18,11,46,18.10
2014,05,18,11,47,18.20
2014,05,18,11,48,18.20
2014,05,18,11,49,18.40
2014,05,18,11,50,18.50
2014,05,18,11,51,18.60
2014,05,18,11,52,18.70
2014,05,18,11,53,18.80
2014,05,18,11,54,18.80
2014,05,18,11,55,18.80
2014,05,18,11,56,18.80
2014,05,18,11,57,18.70
2014,05,18,11,58,18.70
2014,05,18,11,59,18.70
2014,05,18,12,00,18.70
2014,05,18,12,01,18.70
2014,05,18,12,02,18.70
2014,05,18,12,03,18.70
2014,05,18,12,04,18.70
2014,05,18,12,05,18.80
2014,05,18,12,06,18.90
2014,05,18,12,07,18.90
2014,05,18,12,08,18.90
2014,05,18,12,09,18.90
2014,05,18,12,10,18.90
2014,05,18,12,11,19.10
2014,05,18,12,12,19.10
2014,05,18,12,13,19.20
2014,05,18,12,14,19.30
2014,05,18,12,15,19.30
2014,05,18,12,16,19.30
2014,05,18,12,17,19.30
2014,05,18,12,18,19.40
2014,05,18,12,19,19.50
2014,05,18,12,20,19.70
2014,05,18,12,21,19.80
2014,05,18,12,22,19.90
2014,05,18,12,23,20.10
2014,05,18,12,24,20.10
2014,05,18,12,25,20.10
2014,05,18,12,26,20.20
2014,05,18,12,27,20.20
2014,05,18,12,28,20.20
2014,05,18,12,29,20.30
2014,05,18,12,30,20.40
2014,05,18,12,31,20.50
2014,05,18,12,32,20.60
2014,05,18,12,33,20.80
2014,05,18,12,34,21.00
2014,05,18,12,35,21.00
2014,05,18,12,36,21.20
2014,05,18,12,37,21.20
2014,05,18,12,38,21.30
2014,05,18,12,39,21.30
2014,05,18,12,40,21.30
2014,05,18,12,41,21.20
2014,05,18,12,42,21.20
2014,05,18,12,43,21.20
2014,05,18,12,44,21.20
2014,05,18,12,45,21.30
2014,05,18,12,46,21.30
2014,05,18,12,47,21.30
2014,05,18,12,48,21.30
2014,05,18,12,49,21.30
2014,05,18,12,50,21.30
2014,05,18,12,51,21.00
2014,05,18,12,52,20.90
2014,05,18,12,53,20.80
2014,05,18,12,54,20.60
2014,05,18,12,55,20.60
2014,05,18,12,56,20.50
2014,05,18,12,57,20.50
2014,05,18,12,58,20.50
2014,05,18,12,59,20.30
2014,05,18,13,00,20.20
2014,05,18,13,01,20.20
2014,05,18,13,02,20.10
2014,05,18,13,03,19.90
2014,05,18,13,04,19.70
2014,05,18,13,05,19.60
2014,05,18,13,06,19.60
2014,05,18,13,07,19.80
2014,05,18,13,08,19.90
2014,05,18,13,09,20.10
2014,05,18,13,10,20.20
2014,05,18,13,11,20.50
2014,05,18,13,12,20.80
2014,05,18,13,13,21.00
2014,05,18,13,14,21.00
2014,05,18,13,15,21.10
2014,05,18,13,16,20.90
2014,05,18,13,17,20.60
2014,05,18,13,18,20.30
2014,05,18,13,19,20.20
2014,05,18,13,20,20.10
2014,05,18,13,21,19.90
2014,05,18,13,22,19.80
2014,05,18,13,23,19.60
2014,05,18,13,24,19.50
2014,05,18,13,25,19.40
2014,05,18,13,26,19.40
2014,05,18,13,27,19.50
2014,05,18,13,28,19.60
2014,05,18,13,29,19.60
2014,05,18,13,30,19.70
2014,05,18,13,31,19.80
2014,05,18,13,32,19.80
2014,05,18,13,33,19.70
2014,05,18,13,34,19.60
2014,05,18,13,35,19.50
2014,05,18,13,36,19.50
2014,05,18,13,37,19.40
2014,05,18,13,38,19.40
2014,05,18,13,39,19.40
2014,05,18,13,40,19.40
2014,05,18,13,41,19.30
2014,05,18,13,42,19.20
2014,05,18,13,43,19.10
2014,05,18,13,44,19.10
2014,05,18,13,45,19.10
2014,05,18,13,46,19.10
2014,05,18,13,47,19.10
2014,05,18,13,48,18.90
2014,05,18,13,49,18.80
2014,05,18,13,50,18.70
2014,05,18,13,51,18.60
2014,05,18,13,52,18.50
2014,05,18,13,53,18.40
2014,05,18,13,54,18.30
2014,05,18,13,55,18.30
2014,05,18,13,56,18.20
2014,05,18,13,57,17.90
2014,05,18,13,58,17.90
2014,05,18,13,59,17.70
2014,05,18,14,00,17.60
2014,05,18,14,01,17.60
2014,05,18,14,02,17.60
2014,05,18,14,03,17.70
2014,05,18,14,04,17.70
2014,05,18,14,05,17.70
2014,05,18,14,06,17.70
2014,05,18,14,07,17.70
2014,05,18,14,08,17.70
2014,05,18,14,09,17.70
2014,05,18,14,10,17.70
2014,05,18,14,11,17.70
2014,05,18,14,12,17.60
2014,05,18,14,13,17.60
2014,05,18,14,14,17.60
2014,05,18,14,15,17.60
2014,05,18,14,16,17.60
2014,05,18,14,17,17.70
2014,05,18,14,18,17.70
2014,05,18,14,19,17.80
2014,05,18,14,20,17.80
2014,05,18,14,21,17.90
2014,05,18,14,22,17.90
2014,05,18,14,23,17.90
2014,05,18,14,24,17.80
2014,05,18,14,25,17.70
2014,05,18,14,26,17.60
2014,05,18,14,27,17.60
2014,05,18,14,28,17.60
2014,05,18,14,29,17.60
2014,05,18,14,30,17.60
2014,05,18,14,31,17.60
2014,05,18,14,32,17.70
2014,05,18,14,33,17.70
2014,05,18,14,34,17.70
2014,05,18,14,35,17.70
2014,05,18,14,36,17.70
2014,05,18,14,37,17.80
2014,05,18,14,38,17.90
2014,05,18,14,39,17.90
2014,05,18,14,40,17.90
2014,05,18,14,41,17.90
2014,05,18,14,42,17.90
2014,05,18,14,43,17.90
2014,05,18,14,44,17.90
2014,05,18,14,45,18.10
2014,05,18,14,46,18.10
2014,05,18,14,47,18.10
2014,05,18,14,48,18.20
2014,05,18,14,49,18.20
2014,05,18,14,50,18.20
2014,05,18,14,51,18.20
2014,05,18,14,52,18.20
2014,05,18,14,53,18.30
2014,05,18,14,54,18.30
2014,05,18,14,55,18.30
2014,05,18,14,56,18.40
2014,05,18,14,57,18.30
2014,05,18,14,58,18.30
2014,05,18,14,59,18.20
2014,05,18,15,00,18.20
2014,05,18,15,01,18.20
2014,05,18,15,02,18.20
2014,05,18,15,03,18.20
2014,05,18,15,04,18.20
2014,05,18,15,05,18.10
2014,05,18,15,06,18.10
2014,05,18,15,07,18.10
2014,05,18,15,08,17.90
2014,05,18,15,09,17.90
2014,05,18,15,10,17.90
2014,05,18,15,11,17.90
2014,05,18,15,12,17.90
2014,05,18,15,13,17.90
2014,05,18,15,14,17.80
2014,05,18,15,15,17.80
2014,05,18,15,16,17.80
2014,05,18,15,17,17.80
2014,05,18,15,18,17.70
2014,05,18,15,19,17.60
2014,05,18,15,20,17.50
2014,05,18,15,21,17.40
2014,05,18,15,22,17.30
2014,05,18,15,23,16.80
2014,05,18,15,24,16.60
2014,05,18,15,25,16.30
2014,05,18,15,26,16.10
2014,05,18,15,27,15.90
2014,05,18,15,28,15.80
2014,05,18,15,29,15.60
2014,05,18,15,30,15.40
2014,05,18,15,31,15.30
2014,05,18,15,32,15.10
2014,05,18,15,33,15.00
2014,05,18,15,34,14.90
2014,05,18,15,35,14.80
2014,05,18,15,36,14.80
2014,05,18,15,37,14.70
2014,05,18,15,38,14.60
2014,05,18,15,39,14.60
2014,05,18,15,40,14.50
2014,05,18,15,41,14.50
2014,05,18,15,42,14.60
2014,05,18,15,43,14.60
2014,05,18,15,44,14.60
2014,05,18,15,45,14.70
2014,05,18,15,46,14.70
2014,05,18,15,47,14.70
2014,05,18,15,48,14.80
2014,05,18,15,49,14.80
2014,05,18,15,50,14.80
2014,05,18,15,51,14.80
2014,05,18,15,52,14.80
2014,05,18,15,53,14.80
2014,05,18,15,54,14.80
2014,05,18,15,55,14.80
2014,05,18,15,56,14.90
2014,05,18,15,57,14.90
2014,05,18,15,58,15.00
2014,05,18,15,59,15.00
2014,05,18,16,00,15.10
2014,05,18,16,01,15.10
2014,05,18,16,02,15.10
2014,05,18,16,03,15.20
2014,05,18,16,04,15.20
2014,05,18,16,05,15.30
2014,05,18,16,06,15.30
2014,05,18,16,07,15.30
2014,05,18,16,08,15.30
2014,05,18,16,09,15.40
2014,05,18,16,10,15.40
2014,05,18,16,11,15.50
2014,05,18,16,12,15.60
2014,05,18,16,13,15.70
2014,05,18,16,14,15.70
2014,05,18,16,15,15.80
2014,05,18,16,16,15.80
2014,05,18,16,17,15.80
2014,05,18,16,18,15.80
2014,05,18,16,19,15.90
2014,05,18,16,20,15.90
2014,05,18,16,21,15.90
2014,05,18,16,22,16.10
2014,05,18,16,23,16.10
2014,05,18,16,24,16.20
2014,05,18,16,25,16.30
2014,05,18,16,26,16.40
2014,05,18,16,27,16.40
2014,05,18,16,28,16.60
2014,05,18,16,29,16.70
2014,05,18,16,30,16.80
2014,05,18,16,31,17.00
2014,05,18,16,32,17.10
2014,05,18,16,33,17.20
2014,05,18,16,34,17.30
2014,05,18,16,35,17.30
2014,05,18,16,36,17.30
2014,05,18,16,37,17.40
2014,05,18,16,38,17.50
2014,05,18,16,39,17.60
2014,05,18,16,40,17.60
2014,05,18,16,41,17.70
2014,05,18,16,42,17.70
2014,05,18,16,43,17.70
2014,05,18,16,44,17.70
2014,05,18,16,45,17.60
2014,05,18,16,46,17.60
2014,05,18,16,47,17.40
2014,05,18,16,48,17.30
2014,05,18,16,49,17.30
2014,05,18,16,50,17.30
2014,05,18,16,51,17.30
2014,05,18,16,52,17.30
2014,05,18,16,53,17.30
2014,05,18,16,54,17.30
2014,05,18,16,55,17.30
2014,05,18,16,56,17.30
2014,05,18,16,57,17.20
2014,05,18,16,58,17.20
2014,05,18,16,59,17.20
2014,05,18,17,00,17.20
2014,05,18,17,01,17.30
2014,05,18,17,02,17.30
2014,05,18,17,03,17.30
2014,05,18,17,04,17.30
2014,05,18,17,05,17.30
2014,05,18,17,06,17.30
2014,05,18,17,07,17.30
2014,05,18,17,08,17.30
2014,05,18,17,09,17.30
2014,05,18,17,11,17.30
2014,05,18,17,12,17.30
2014,05,18,17,13,17.30
2014,05,18,17,14,17.30
2014,05,18,17,15,17.30
2014,05,18,17,16,17.10
2014,05,18,17,17,16.90
2014,05,18,17,18,16.70
2014,05,18,17,19,16.30
2014,05,18,17,20,16.10
2014,05,18,17,21,15.80
2014,05,18,17,22,15.60
2014,05,18,17,23,15.40
2014,05,18,17,24,15.30
2014,05,18,17,25,15.20
2014,05,18,17,26,15.10
2014,05,18,17,27,15.10
2014,05,18,17,28,14.90
2014,05,18,17,29,14.90
2014,05,18,17,30,14.80
2014,05,18,17,31,14.80
2014,05,18,17,32,14.80
2014,05,18,17,33,14.70
2014,05,18,17,34,14.60
2014,05,18,17,35,14.50
2014,05,18,17,36,14.50
2014,05,18,17,37,14.50
2014,05,18,17,38,14.50
2014,05,18,17,39,14.40